TimeCDT,TemperatureF,Dew PointF,Humidity,Sea Level PressureIn,VisibilityMPH,Wind Direction,Wind SpeedMPH,Gust SpeedMPH,PrecipitationIn,Events,Conditions,WindDirDegrees,DateUTC
12:15 AM,64.4,57.2,77,30.06,10.0,NNW,6.9,-,N/A,,Clear,340,2013-05-12 05:15:00
12:35 AM,64.4,57.2,77,30.07,10.0,NNW,6.9,-,N/A,,Clear,340,2013-05-12 05:35:00
12:55 AM,62.6,57.2,82,30.06,10.0,NNW,5.8,-,N/A,,Clear,330,2013-05-12 05:55:00
1:15 AM,62.6,55.4,77,30.07,10.0,NW,5.8,-,N/A,,Clear,320,2013-05-12 06:15:00
1:35 AM,62.6,55.4,77,30.07,10.0,NW,6.9,-,N/A,,Clear,320,2013-05-12 06:35:00
1:55 AM,62.6,55.4,77,30.07,10.0,NNW,6.9,-,N/A,,Clear,330,2013-05-12 06:55:00
2:15 AM,60.8,55.4,82,30.07,10.0,NW,5.8,-,N/A,,Clear,320,2013-05-12 07:15:00
2:35 AM,60.8,55.4,82,30.06,10.0,NW,5.8,-,N/A,,Clear,320,2013-05-12 07:35:00
2:55 AM,60.8,53.6,77,30.06,10.0,NNW,6.9,-,N/A,,Clear,340,2013-05-12 07:55:00
3:15 AM,60.8,53.6,77,30.06,10.0,NNW,6.9,-,N/A,,Clear,340,2013-05-12 08:15:00
3:35 AM,60.8,53.6,77,30.07,10.0,NNW,8.1,-,N/A,,Clear,340,2013-05-12 08:35:00
3:55 AM,60.8,53.6,77,30.07,10.0,NNW,6.9,-,N/A,,Clear,340,2013-05-12 08:55:00
4:35 AM,57.2,53.6,88,30.07,10.0,NNW,5.8,-,N/A,,Clear,340,2013-05-12 09:35:00
4:55 AM,57.2,53.6,88,30.06,10.0,NNW,4.6,-,N/A,,Clear,340,2013-05-12 09:55:00
5:16 AM,57.2,51.8,82,30.06,10.0,Calm,Calm,-,N/A,,Clear,0,2013-05-12 10:16:00
5:35 AM,55.4,51.8,88,30.08,10.0,Calm,Calm,-,N/A,,Clear,0,2013-05-12 10:35:00
5:55 AM,55.4,51.8,88,30.08,10.0,Calm,Calm,-,N/A,,Clear,0,2013-05-12 10:55:00
6:15 AM,55.4,51.8,88,30.09,10.0,Calm,Calm,-,N/A,,Clear,0,2013-05-12 11:15:00
6:35 AM,55.4,51.8,88,30.10,10.0,Calm,Calm,-,N/A,,Clear,0,2013-05-12 11:35:00
6:56 AM,57.2,53.6,88,30.11,10.0,Calm,Calm,-,N/A,,Clear,0,2013-05-12 11:56:00
7:15 AM,60.8,53.6,77,30.11,10.0,North,4.6,-,N/A,,Clear,350,2013-05-12 12:15:00
7:35 AM,62.6,53.6,72,30.12,10.0,North,4.6,-,N/A,,Clear,360,2013-05-12 12:35:00
7:55 AM,64.4,55.4,73,30.12,10.0,North,8.1,-,N/A,,Clear,360,2013-05-12 12:55:00
8:15 AM,66.2,55.4,68,30.14,10.0,North,9.2,-,N/A,,Clear,360,2013-05-12 13:15:00
8:36 AM,66.2,53.6,64,30.15,10.0,NNE,11.5,-,N/A,,Clear,20,2013-05-12 13:36:00
8:55 AM,66.2,53.6,64,30.15,10.0,North,11.5,16.1,N/A,,Clear,10,2013-05-12 13:55:00
9:15 AM,68.0,55.4,64,30.16,10.0,North,11.5,-,N/A,,Clear,360,2013-05-12 14:15:00
9:35 AM,68.0,55.4,64,30.16,10.0,North,10.4,-,N/A,,Partly Cloudy,360,2013-05-12 14:35:00
9:55 AM,69.8,55.4,60,30.16,10.0,NE,8.1,-,N/A,,Clear,50,2013-05-12 14:55:00
10:15 AM,71.6,55.4,57,30.16,10.0,NE,9.2,16.1,N/A,,Clear,50,2013-05-12 15:15:00
10:35 AM,71.6,53.6,53,30.16,10.0,NE,9.2,-,N/A,,Clear,40,2013-05-12 15:35:00
10:55 AM,71.6,55.4,57,30.16,10.0,NE,8.1,-,N/A,,Clear,40,2013-05-12 15:55:00
11:15 AM,71.6,55.4,57,30.15,10.0,NNE,9.2,-,N/A,,Clear,30,2013-05-12 16:15:00
11:35 AM,73.4,55.4,53,30.14,10.0,NE,6.9,-,N/A,,Clear,50,2013-05-12 16:35:00
11:55 AM,73.4,55.4,53,30.14,10.0,NNE,5.8,-,N/A,,Clear,30,2013-05-12 16:55:00
12:15 PM,75.2,55.4,50,30.14,10.0,NNE,5.8,-,N/A,,Clear,20,2013-05-12 17:15:00
12:35 PM,75.2,55.4,50,30.14,10.0,North,8.1,-,N/A,,Scattered Clouds,10,2013-05-12 17:35:00
12:55 PM,75.2,55.4,50,30.14,10.0,NNE,8.1,-,N/A,,Mostly Cloudy,20,2013-05-12 17:55:00
1:15 PM,75.2,55.4,50,30.15,10.0,North,6.9,-,N/A,,Mostly Cloudy,360,2013-05-12 18:15:00
1:35 PM,77.0,57.2,50,30.15,10.0,NW,5.8,-,N/A,,Mostly Cloudy,320,2013-05-12 18:35:00
1:55 PM,77.0,57.2,50,30.15,10.0,NW,6.9,-,N/A,,Scattered Clouds,310,2013-05-12 18:55:00
2:35 PM,75.2,55.4,50,30.14,10.0,North,8.1,-,N/A,,Mostly Cloudy,10,2013-05-12 19:35:00
2:55 PM,77.0,57.2,50,30.13,10.0,North,11.5,-,N/A,,Scattered Clouds,350,2013-05-12 19:55:00
3:15 PM,77.0,57.2,50,30.13,10.0,North,11.5,-,N/A,,Mostly Cloudy,10,2013-05-12 20:15:00
3:35 PM,75.2,55.4,50,30.12,10.0,North,8.1,-,N/A,,Mostly Cloudy,350,2013-05-12 20:35:00
3:55 PM,75.2,55.4,50,30.12,10.0,North,12.7,16.1,N/A,,Scattered Clouds,350,2013-05-12 20:55:00
4:15 PM,75.2,53.6,47,30.12,10.0,NNW,8.1,-,N/A,,Partly Cloudy,330,2013-05-12 21:15:00
4:35 PM,75.2,53.6,47,30.13,10.0,NNW,11.5,16.1,N/A,,Clear,330,2013-05-12 21:35:00
4:55 PM,75.2,53.6,47,30.13,10.0,NNW,10.4,-,N/A,,Scattered Clouds,340,2013-05-12 21:55:00
5:35 PM,75.2,53.6,47,30.12,10.0,North,11.5,16.1,N/A,,Scattered Clouds,350,2013-05-12 22:35:00
5:55 PM,73.4,51.8,47,30.12,10.0,North,11.5,17.3,N/A,,Partly Cloudy,360,2013-05-12 22:55:00
6:15 PM,73.4,50.0,44,30.12,10.0,NNW,10.4,-,N/A,,Clear,340,2013-05-12 23:15:00
6:35 PM,71.6,51.8,50,30.12,10.0,NNW,9.2,-,N/A,,Clear,330,2013-05-12 23:35:00
6:55 PM,71.6,48.2,43,30.13,10.0,NNW,8.1,-,N/A,,Clear,340,2013-05-12 23:55:00
7:15 PM,69.8,50.0,49,30.13,10.0,NNW,9.2,-,N/A,,Clear,340,2013-05-13 00:15:00
7:35 PM,66.2,50.0,56,30.14,10.0,NNW,6.9,-,N/A,,Clear,340,2013-05-13 00:35:00
7:55 PM,64.4,50.0,59,30.14,10.0,NNW,4.6,-,N/A,,Clear,330,2013-05-13 00:55:00
8:15 PM,64.4,48.2,56,30.14,10.0,NNW,5.8,-,N/A,,Clear,330,2013-05-13 01:15:00
8:35 PM,62.6,48.2,59,30.15,10.0,NNW,5.8,-,N/A,,Clear,330,2013-05-13 01:35:00
8:55 PM,62.6,48.2,59,30.15,10.0,NNW,4.6,-,N/A,,Clear,330,2013-05-13 01:55:00
9:15 PM,59.0,48.2,67,30.16,10.0,North,4.6,-,N/A,,Clear,350,2013-05-13 02:15:00
9:35 PM,60.8,48.2,63,30.16,10.0,NNW,9.2,-,N/A,,Clear,330,2013-05-13 02:35:00
9:55 PM,60.8,46.4,59,30.16,10.0,NNW,10.4,-,N/A,,Clear,340,2013-05-13 02:55:00
10:15 PM,60.8,44.6,55,30.17,10.0,NNW,9.2,-,N/A,,Clear,340,2013-05-13 03:15:00
10:35 PM,60.8,44.6,55,30.17,10.0,NNW,8.1,-,N/A,,Clear,340,2013-05-13 03:35:00
10:55 PM,60.8,44.6,55,30.17,10.0,NNW,8.1,-,N/A,,Clear,340,2013-05-13 03:55:00
11:15 PM,59.0,44.6,59,30.17,10.0,NNW,11.5,-,N/A,,Clear,340,2013-05-13 04:15:00
11:35 PM,59.0,42.8,55,30.17,10.0,NNW,9.2,-,N/A,,Clear,340,2013-05-13 04:35:00
11:55 PM,57.2,42.8,59,30.17,10.0,NNW,11.5,-,N/A,,Clear,340,2013-05-13 04:55:00